Hourly Data Report for October 14, 2015

All times are specified in Local Standard Time (LST). Add 1 hour to adjust for Daylight Saving Time where and when it is observed.

EUREKA CLIMATE
NUNAVUT

79°59'21.000" N
85°56'02.000" W
10.00 m
2401199
71613
NEK

Download Data

Hourly Data (October 2015)
Hourly Data Report for October 14, 2015
Temp Definition
°C
Dew Point Temp Definition
°C
Rel Hum Definition
%
Wind Dir Definition
10's deg

Wind Spd Definition
km/h
Visibility Definition
km
Stn Press Definition
kPa
Hmdx Definition


Wind Chill Definition


Weather Definition


TIME
00:00 -23.5 -25.5 83 10 1   100.46   -24 LegendNANA
01:00 -23.7 -25.7 83 10 1   100.47   -25 LegendNANA
02:00 -23.9 -26.0 83 6 1   100.52   -25 LegendNANA
03:00 -24.5 -26.6 83 5 1   100.54   -25 LegendNANA
04:00 -24.6 -26.8 82 10 1   100.56   -26 LegendNANA
05:00 -23.1 -25.1 84 10 1   100.59   -24 LegendNANA
06:00 -22.1 -23.9 85 15 1   100.62   -23 LegendNANA
07:00 -21.5 -23.3 85 2 1   100.64   -22 LegendNANA
08:00 -21.0 -22.8 86 4 1   100.67   -22 LegendNANA
09:00 -20.2 -21.9 87 17 1   100.70   -21 LegendNANA
10:00 -20.0 -21.6 87 3 1   100.70   -21 LegendNANA
11:00 -19.5 -21.1 87 34 1   100.70   -20 LegendNANA
12:00 -19.1 -20.6 88 2 1   100.73   -20 LegendNANA
13:00 -19.3 -20.8 87 23 1   100.74   -20 LegendNANA
14:00 -19.3 -20.8 87 22 1   100.77   -20 LegendNANA
15:00 -19.4 -20.9 87 21 1   100.78   -20 LegendNANA
16:00 -19.5 -21.1 87 21 1   100.80   -20 LegendNANA
17:00 -19.2 -20.8 88 20 1   100.79   -20 LegendNANA
18:00 -19.2 -20.7 88 28 1   100.78   -20 LegendNANA
19:00 -19.2 -20.8 88 24 1   100.76   -20 LegendNANA
20:00 -19.2 -20.8 88 29 1   100.75   -20 LegendNANA
21:00 -19.3 -20.8 88 22 1   100.70   -20 LegendNANA
22:00 -19.2 -20.8 87 19 1   100.65   -20 LegendNANA
23:00 -19.4 -21.0 87 1 1   100.60   -20 LegendNANA

Notes on Data Quality.

Legend

  • E = Estimated
  • M = Missing
  • NA = Not Available
  • ‡ = Partner data that is not subject to review by the National Climate Archives
Date modified: